This demonstration page uses our WeatherBlox Daily Observations layout. Learn more.

38.88101, -77.10428

Hourly Observations for June 23, 2017

Temp ( °F °C ) Dew Point ( °F °C ) Humidity (%) Winds ( mph kmh ) Pressure ( in mb ) Visibility ( mi km ) Precip ( " mm )
12:52 am 00:52 Cloudy 79 26.1 75 23.9 88 88 S 7 11 29.93 1014 10 16.0934 0 0
1:52 am 01:52 Cloudy 79 26.1 72 22.2 79 79 SSW 8 13 29.91 1013 10 16.0934 0 0
2:52 am 02:52 Cloudy 79 26.1 72 22.2 79 79 SSW 10 17 29.89 1012 10 16.0934 0 0
3:52 am 03:52 Cloudy 78 25.6 74 23.3 87 87 SSW 9 15 29.88 1012 10 16.0934 0 0
4:52 am 04:52 Cloudy with Light Rain 78 25.6 72 22.2 82 82 SW 10 17 29.88 1012 10 16.0934 0 0.0254
5:52 am 05:52 Cloudy 77 25 71 21.7 82 82 SW 12 19 29.89 1012 10 16.0934 0 0.0254
6:04 am 06:04 Cloudy with Light Rain 76 24.4 70 21.1 82 82 SW 14 22 29.88 1012 9 14.48406 0.01 0.254
6:21 am 06:21 Cloudy with Light Rain 75 23.9 70 21.1 84 84 SW 17 28 29.91 1013 5 8.0467 0.01 0.254
6:28 am 06:28 Cloudy with Rain 74 23.3 70 21.1 88 88 SW 17 28 29.91 1013 2.5 4.02335 0.03 0.762
6:35 am 06:35 Cloudy with Rain 73 22.8 71 21.7 94 94 SW 10 17 29.91 1013 2 3.21868 0.05 1.27
6:43 am 06:43 Cloudy with Rain 73 22.8 72 22.2 96 96 SSW 15 24 29.91 1013 4 6.43736 0.08 2.032
6:52 am 06:52 Cloudy with Light Rain 73 22.8 72 22.2 96 96 S 12 19 29.89 1012 9 14.48406 0.09 2.286
6:55 am 06:55 Cloudy with Light Rain 73 22.8 72 22.2 96 96 S 12 19 29.88 1012 8 12.87472 0 0.0254
7:38 am 07:38 Cloudy 74 23.3 72 22.2 94 94 S 14 22 29.88 1012 10 16.0934 0.01 0.254
7:45 am 07:45 Cloudy 74 23.3 72 22.2 94 94 S 13 20 29.88 1012 10 16.0934 0.01 0.254
7:52 am 07:52 Cloudy with Light Rain 74 23.3 72 22.2 94 94 S 13 20 29.87 1012 9 14.48406 0.01 0.254
8:02 am 08:02 Cloudy 74 23.3 73 22.8 97 97 S 15 24 29.88 1012 10 16.0934 0 0.0254
8:25 am 08:25 Cloudy 74 23.3 73 22.8 97 97 SSW 13 20 29.85 1011 10 16.0934 0 0.0254
8:52 am 08:52 Cloudy 75 23.9 73 22.8 94 94 S 13 20 29.85 1011 10 16.0934 0 0.0254
9:17 am 09:17 Cloudy 76 24.4 74 23.3 94 94 SSW 16 26 29.85 1011 10 16.0934 0 0
9:52 am 09:52 Cloudy 78 25.6 74 23.3 87 87 SSW 16 26 29.84 1010 10 16.0934 0 0
10:52 am 10:52 Mostly Cloudy 82 27.8 75 23.9 79 79 SSW 16 26 29.82 1010 10 16.0934 0 0
11:30 am 11:30 Mostly Cloudy 84 28.9 74 23.3 72 72 SSW 18 30 29.8 1009 10 16.0934 0 0
11:52 am 11:52 Mostly Cloudy 86 30 75 23.9 70 70 SSW 18 30 29.79 1009 10 16.0934 0 0
12:14 pm 12:14 Mostly Cloudy 86 30 75 23.9 70 70 SSW 16 26 29.8 1009 10 16.0934 0 0
12:27 pm 12:27 Mostly Cloudy 87 30.6 75 23.9 67 67 SW 16 26 29.8 1009 10 16.0934 0 0
12:52 pm 12:52 Mostly Cloudy 88 31.1 74 23.3 63 63 SW 20 31 29.78 1009 10 16.0934 0 0
1:52 pm 13:52 Mostly Cloudy 86 30 74 23.3 67 67 SSW 17 28 29.77 1008 10 16.0934 0 0
2:52 pm 14:52 Mostly Cloudy 87 30.6 74 23.3 65 65 SW 24 39 29.76 1008 10 16.0934 0 0
3:52 pm 15:52 Mostly Cloudy with Light Rain 84 28.9 74 23.3 72 72 SSW 22 35 29.75 1008 10 16.0934 0 0.0254
4:40 pm 16:40 Cloudy 83 28.3 77 25 82 82 SSW 15 24 29.74 1007 10 16.0934 0 0.0254
4:52 pm 16:52 Cloudy 84 28.9 77 25 80 80 SSW 14 22 29.72 1006 10 16.0934 0 0.0254
5:39 pm 17:39 Mostly Cloudy 86 30 76 24.4 72 72 SSW 15 24 29.71 1006 10 16.0934 0 0
5:52 pm 17:52 Mostly Cloudy 86 30 76 24.4 72 72 SSW 15 24 29.71 1006 10 16.0934 0 0
6:52 pm 18:52 Mostly Cloudy 87 30.6 76 24.4 70 70 SSW 13 20 29.7 1006 10 16.0934 0 0
7:52 pm 19:52 Mostly Cloudy 86 30 74 23.3 67 67 SSW 15 24 29.7 1006 10 16.0934 0 0
8:52 pm 20:52 Mostly Cloudy 85 29.4 74 23.3 70 70 SSW 12 19 29.7 1006 10 16.0934 0 0
9:52 pm 21:52 Mostly Cloudy with Light Rain 84 28.9 75 23.9 74 74 S 14 22 29.71 1006 10 16.0934 0 0.0254
10:52 pm 22:52 Mostly Cloudy 84 28.9 74 23.3 72 72 S 13 20 29.7 1006 10 16.0934 0 0.0254
11:52 pm 23:52 Cloudy 84 28.9 73 22.8 70 70 SSW 16 26 29.69 1005 10 16.0934 0 0.0254

Powered by AerisWeather